Showing default

OPS 9311 (IDSCS 1), 2215

Orbit data source: Space-Track

OPS 9311 (IDSCS 1), 2215 is a payload satellite owned by USAF SSD (US) in GEO that was launched on Thu, 16 Jun 1966 UTC via a TITAN IIIC launch vehicle from the Air Force Eastern Test Range (AFETR). Payload-class satellites include a variety of spacecraft equipped with specific instruments for various scientific and technological missions. These include communications satellites like Starlink; space stations such as the ISS; scientific satellites like the Hubble; Earth observation satellites from companies like Planet Labs, Umbra, and HawkEye 360; GPS; miniature CubeSats for education and research; and military/defense satellites.

Not visible in the next 10 days
Identifier
2215, 1966-053B
Orbit
GEO
Country
Flag of USUS
Related business
Manufacturer
Philco-Ford WDL
Mission
Non-operational spacecraft
Bus & Motor
IDCSP, Unknown motor
Mass
45 kg wet, 45 kg dry
Launch date (UTC)
1966-06-16 (59 years ago)
Launch vehicle
TITAN IIIC
Launch site
Air Force Eastern Test Range (AFETR)
Object type
Payload
Rocket body
Debris
Shape & HBR
Unknown
Radar Cross Section
Medium (>0.1 m² and <1 m²)

Expand to show TLE details & history
Last TLE update: 6 hours ago

TLE from 6 hours ago
0 OPS 9311 (IDSCS 1)
1 02215U 66053B   25341.91631230 -.00000066  00000-0  00000-0 0  9993
2 02215   8.3187  45.4535 0032811 218.8930 140.7795  1.07908247132301
Epoch: 2025-12-07T21:59Z
TLE epoch observation values (Epoch: 2025-12-07T21:59:29.382Z)
Latitude
-0.00001°
Longitude
-1.43325°
Altitude
33,875.346 km
Speed
3.143 km/s
True Right ascension
03h 01m 26s
True Declination
0° 00' 00"
Sunlit
Object was in daylight at epoch
Visualization orbit readout
Latitude
Unknown
Longitude
Unknown
Altitude
Unknown
Speed
Unknown
Apparent Right ascension
Unknown
Apparent Declination
Unknown
Sunlit
N/A
Visualization observer readout
Local Sidereal Time
02:34:30
Azimuth
Unknown
Elevation
Unknown
Doppler factor
Unknown
Orbital elements
Apogee altitude
33,905.914 km
Perigee altitude
33,642.427 km
Semi-major axis
40,152.307 km
Eccentricity
0.00328
Inclination
8.3187°
RAAN
45.4535°
Arg. of periapsis
218.893°
True anomaly
141.01648°
Mean anomaly
140.7795°
Eccentric anomaly
140.89807°
Mean motion
0.26976 °/min
Orbital period
1,334.52 mins
BSTAR
0
Loading maneuver chart data...
Computing Atmospheric mass density...
Loading historical data...
Loading historical data...
Loading historical data...
Loading historical data...
Loading historical data...
Loading historical data...
Loading historical data...

Documentation

Showing up to 5 results
|